This demonstration page uses our WeatherBlox Daily Observations layout. Learn more.

Left ArrowRight Arrow

36.17497, -115.13722

Hourly Observations for December 21, 2019

Temp ( °F °C ) Dew Point ( °F °C ) Humidity (%) Winds ( mph kmh ) Pressure ( in mb ) Visibility ( mi km ) Precip ( " mm )
12:53 am 00:53 Clear 42 5.6 28 -2.2 58 58 NW 5 7 30.37 1029 10 16 0.00 0.00
1:53 am 01:53 Clear 43 6.1 27 -2.8 53 53 NW 5 7 30.37 1029 10 16 0.00 0.00
2:53 am 02:53 Clear 42 5.6 27 -2.8 55 55 WNW 5 7 30.36 1028 10 16 0.00 0.00
3:53 am 03:53 Clear 41 5 28 -2.2 60 60 Calm 30.36 1028 10 16 0.00 0.00
4:53 am 04:53 Clear 40 4.4 28 -2.2 63 63 NW 5 7 30.37 1028 10 16 0.00 0.00
5:53 am 05:53 Clear 40 4.4 27 -2.8 60 60 WNW 3 6 30.37 1028 10 16 0.00 0.00
6:53 am 06:53 Sunny 39 3.9 28 -2.2 65 65 NNW 3 6 30.39 1029 10 16 0.00 0.00
7:53 am 07:53 Sunny 42 5.6 28 -2.2 58 58 WNW 3 6 30.40 1029 10 16 0.00 0.00
8:53 am 08:53 Sunny 47 8.3 29 -1.7 50 50 Calm 30.39 1029 10 16 0.00 0.00
9:53 am 09:53 Sunny 50 10 28 -2.2 43 43 Calm 30.38 1029 10 16 0.00 0.00
10:53 am 10:53 Sunny 52 11.1 26 -3.3 37 37 VRB 3 6 30.35 1028 10 16 0.00 0.00
11:53 am 11:53 Sunny 54 12.2 26 -3.3 34 34 E 5 7 30.32 1027 10 16 0.00 0.00
12:53 pm 12:53 Sunny 55 12.8 26 -3.3 33 33 SE 5 7 30.27 1025 10 16 0.00 0.00
1:53 pm 13:53 Sunny 56 13.3 25 -3.9 30 30 ESE 3 6 30.25 1025 10 16 0.00 0.00
2:53 pm 14:53 Sunny 56 13.3 26 -3.3 32 32 SSE 5 7 30.24 1024 10 16 0.00 0.00
3:53 pm 15:53 Sunny 54 12.2 28 -2.2 37 37 ESE 3 6 30.25 1025 10 16 0.00 0.00
4:53 pm 16:53 Clear 52 11.1 27 -2.8 38 38 E 3 6 30.25 1024 10 16 0.00 0.00
5:53 pm 17:53 Clear 51 10.6 28 -2.2 41 41 S 3 6 30.25 1024 10 16 0.00 0.00
6:53 pm 18:53 Clear 50 10 28 -2.2 43 43 Calm 30.25 1024 10 16 0.00 0.00
7:53 pm 19:53 Clear 47 8.3 29 -1.7 50 50 Calm 30.25 1024 10 16 0.00 0.00
8:53 pm 20:53 Clear 46 7.8 29 -1.7 51 51 W 5 7 30.24 1024 10 16 0.00 0.00
9:53 pm 21:53 Clear 45 7.2 30 -1.1 56 56 NW 3 6 30.23 1024 10 16 0.00 0.00
10:53 pm 22:53 Clear 43 6.1 30 -1.1 60 60 N 3 6 30.21 1023 10 16 0.00 0.00
11:53 pm 23:53 Clear 43 6.1 29 -1.7 58 58 WNW 3 6 30.19 1022 10 16 0.00 0.00

Powered by AerisWeather